Regional Weather Roundup
Issued by NWS

Home | Current Version | Previous Version | Graphics & Text | Print | Product List | Glossary On
Versions: 1 2 3 4 5 6 7 8 9 10 11 12 13 14 15 16 17 18 19 20 21 22 23 24 25 26 27 28 29 30 31 32 33 34 35 36 37 38 39 40 41 42 43 44 45 46 47 48 49 50
000
ASUS43 KTOP 262259
RWRKS

WEATHER ROUNDUP FOR KANSAS
NATIONAL WEATHER SERVICE GOODLAND KS
600 PM CDT SUN APR 26 2015

NOTE:  "FAIR" INDICATES FEW OR NO CLOUDS BELOW 12,000 FEET WITH NO
SIGNIFICANT WEATHER AND/OR OBSTRUCTIONS TO VISIBILITY.

KSZ001>006-013>018-027>032-041>047-270000-
NORTHWEST KANSAS

CITY           SKY/WX    TMP DP  RH WIND       PRES   REMARKS
GOODLAND       CLOUDY    45  44  97 E17       29.92F FOG
HAYS           CLOUDY    50  39  66 E16       29.91R
HILL CITY      CLOUDY    50  44  80 E16       29.94S
RUSSELL        CLOUDY    50  44  80 E18       29.90R
$$

KSZ061>065-074>080-084>089-270000-
SOUTHWEST KANSAS

CITY           SKY/WX    TMP DP  RH WIND       PRES   REMARKS
DODGE CITY     CLOUDY    49  46  90 NE20      29.85R FOG
ELKHART          N/A     48  44  86 N8          N/A
GARDEN CITY    CLOUDY    48  46  93 NE16G25   29.84R
GREAT BEND     CLOUDY    52  43  71 NE21G26   29.88S
LIBERAL        CLOUDY    50  46  87 NE13G18   29.83R
$$

KSZ066>073-081>083-090>101-270000-
SOUTHEAST KANSAS

CITY           SKY/WX    TMP DP  RH WIND       PRES   REMARKS
CHANUTE        CLOUDY    54  45  71 E13G20    29.89R
COFFEYVILLE    CLOUDY    58  48  69 NE15G23   29.85R
HUTCHINSON     CLOUDY    53  44  71 NE14      29.88R
MEDICINE LODGE   N/A     56  48  74 NE18      29.82R
NEWTON         CLOUDY    52  43  71 NE14G20   29.90R
PARSONS        CLOUDY    56  47  71 NE10G16   29.88R
WICHITA INTL   CLOUDY    55  45  68 NE22G30   29.86R
WICHITA JABRA  CLOUDY    53  45  74 E17G28    29.88R
WINFIELD       CLOUDY    57  47  69 NE17G23   29.84S
$$

KSZ007>012-019>026-033>040-048>060-102>105-270000-
NORTHEAST KANSAS

CITY           SKY/WX    TMP DP  RH WIND       PRES   REMARKS
CONCORDIA      CLOUDY    54  43  66 E16G22    29.94F
EMPORIA        MOSUNNY   58  45  62 NE14      29.89S
LAWRENCE       SUNNY     62  44  51 NE15G22   29.92F
MANHATTAN      PTSUNNY   59  47  64 NE16      29.92F
OLATHE IND     SUNNY     62  42  47 E10       29.91F
OLATHE EXE     SUNNY     62  40  44 NE15      29.91S
SALINA         CLOUDY    55  43  63 NE14G24   29.92R
TOPEKA BILLARD SUNNY     62  44  51 NE12      29.92F
TOPEKA FORBES  MOSUNNY   62  44  51 E12       29.90F
$$



USA.gov is the U.S. government's official web portal to all federal, state and local government web resources and services.